K1PH Weather Reports


Display with metric or nautical units.
time (UTC)temp
F
wind
direction
speed
MPH
gust
MPH
rain 1hr
in
rain 24hr
in
rain mn
in
humidity
%
barometer
mb
20260901083008 65 134 0.0 0.0 0.00 0.00 0.00 91 998.8
20260901082008 65 134 0.0 0.0 0.00 0.00 0.00 91 998.7
20260901081008 65 134 0.0 0.0 0.00 0.00 0.00 91 998.7
20260901080007 65 134 0.0 1.0 0.00 0.00 0.00 91 998.7
20260901075008 65 131 0.0 1.0 0.00 0.00 0.00 91 998.8
20260901074008 65 131 0.0 1.0 0.00 0.00 0.00 91 998.8
20260901073007 65 137 0.0 0.0 0.00 0.00 0.00 91 998.9
20260901071007 65 137 0.0 0.0 0.00 0.00 0.00 91 999.2
20260901070007 65 137 0.0 0.0 0.00 0.00 0.00 91 999.5
20260901065007 65 137 0.0 0.0 0.00 0.00 0.00 91 999.4
20260901064008 65 137 0.0 0.0 0.00 0.00 0.00 91 999.5
20260901063007 65 137 0.0 0.0 0.00 0.00 0.00 91 999.6
20260901062008 65 137 0.0 0.0 0.00 0.00 0.00 90 999.7
20260901060007 65 137 0.0 0.0 0.00 0.00 0.00 90 999.5
20260901055007 65 137 0.0 0.0 0.00 0.00 0.00 90 999.5
20260901054007 65 137 0.0 0.0 0.00 0.00 0.00 90 999.7
20260901053007 65 137 0.0 0.0 0.00 0.00 0.00 91 999.7
20260901052007 65 137 0.0 0.0 0.00 0.00 0.00 90 999.8
20260901051007 65 137 0.0 0.0 0.00 0.00 0.00 90 999.8
20260901050007 65 137 0.0 0.0 0.00 0.00 0.00 90 999.6
20260901045011 66 137 0.0 0.0 0.00 0.00 0.00 90 999.6
20260901044007 66 137 0.0 0.0 0.00 0.00 0.00 90 999.6
20260901042007 66 137 0.0 0.0 0.00 0.00 0.00 90 999.5
20260901035007 66 137 0.0 0.0 0.00 0.00 0.00 89 999.6
20260901034007 66 137 0.0 0.0 0.00 0.00 0.00 90 999.5
20260901033007 66 137 0.0 0.0 0.00 0.00 0.00 90 999.7
20260901032007 66 137 0.0 1.0 0.00 0.00 0.00 89 1000.0
20260901031007 67 122 0.0 1.0 0.00 0.00 0.00 89 999.9
20260901030006 67 286 0.0 0.0 0.00 0.00 0.00 87 1000.0
20260901025007 67 286 0.0 1.0 0.00 0.00 0.00 87 999.9
20260901024007 67 132 0.0 0.0 0.00 0.00 0.00 88 999.9
20260901023006 67 132 0.0 0.0 0.00 0.00 0.00 88 999.9
20260901021006 67 132 0.0 0.0 0.00 0.00 0.00 88 999.9
20260901020006 67 132 0.0 0.0 0.00 0.00 0.00 88 999.8
20260901014006 67 132 0.0 0.0 0.00 0.00 0.00 88 999.9
20260901013007 67 132 0.0 0.0 0.00 0.00 0.00 87 999.9
20260901012006 67 132 0.0 1.0 0.00 0.00 0.00 87 999.9
20260901011006 68 111 0.0 0.0 0.00 0.00 0.00 87 999.9
20260901010006 68 111 0.0 0.0 0.00 0.00 0.00 87 999.9
20260901005006 68 111 0.0 1.0 0.00 0.00 0.00 87 999.9
20260901004007 68 128 0.0 1.0 0.00 0.00 0.00 86 1000.0
20260901001006 69 96 0.0 1.0 0.00 0.00 0.00 84 999.7
20260901000006 69 99 0.0 1.0 0.00 0.00 0.00 84 999.7
20260831235007 70 127 0.0 1.0 0.00 0.00 0.00 82 999.6
20260831234006 70 64 0.0 0.0 0.00 0.00 0.00 81 999.7
20260831233007 70 64 0.0 0.0 0.00 0.00 0.00 80 999.8
20260831232006 71 64 0.0 0.0 0.00 0.00 0.00 79 999.9
20260831231006 71 64 0.0 1.0 0.00 0.00 0.00 79 1000.0
20260831230005 71 91 0.0 1.0 0.00 0.00 0.00 78 1000.1
20260831225006 72 55 1.0 2.0 0.00 0.00 0.00 78 1000.1
20260831224006 73 74 1.0 2.0 0.00 0.00 0.00 76 1000.2
20260831223006 73 69 0.0 0.0 0.00 0.00 0.00 75 1000.2
20260831222006 74 69 0.0 1.0 0.00 0.00 0.00 73 1000.2
20260831221006 75 101 0.0 2.0 0.00 0.00 0.00 71 1000.1
20260831220005 77 145 0.0 1.0 0.00 0.00 0.00 67 1000.1
20260831214006 79 244 1.0 2.0 0.00 0.00 0.00 60 1000.0
20260831213006 78 172 1.0 3.0 0.00 0.00 0.00 61 1000.0
20260831212005 77 100 1.0 3.0 0.00 0.00 0.00 62 999.9
20260831211006 76 106 1.0 2.0 0.00 0.00 0.00 63 999.9
20260831210005 76 112 0.0 2.0 0.00 0.00 0.00 64 1000.0
20260831205005 78 94 1.0 2.0 0.00 0.00 0.00 64 1000.1
20260831203006 78 276 0.0 5.0 0.00 0.00 0.00 57 1000.0
20260831201010 80 109 1.0 3.0 0.00 0.00 0.00 58 1000.1
20260831195011 81 268 2.0 3.0 0.00 0.00 0.00 54 1000.2
20260831194010 80 148 1.0 3.0 0.00 0.00 0.00 53 1000.2
20260831193011 79 131 1.0 2.0 0.00 0.00 0.00 53 1000.2
20260831191010 77 123 2.0 5.0 0.00 0.00 0.00 62 1000.6
20260831185010 78 102 1.0 5.0 0.00 0.00 0.00 60 1000.6
20260831184010 78 85 1.0 2.0 0.00 0.00 0.00 59 1000.8
20260831181010 77 128 1.0 1.0 0.00 0.00 0.00 57 1000.9
20260831180009 77 317 0.0 2.0 0.00 0.00 0.00 54 1000.9
20260831175010 77 243 1.0 3.0 0.00 0.00 0.00 55 1001.0
20260831174010 77 280 1.0 3.0 0.00 0.00 0.00 56 1001.2
20260831172009 78 118 1.0 2.0 0.00 0.00 0.00 56 1001.1
20260831165010 78 247 1.0 2.0 0.00 0.00 0.00 52 1001.6
20260831164009 76 110 2.0 6.0 0.00 0.00 0.00 53 1001.7
20260831163010 76 69 2.0 5.0 0.00 0.00 0.00 58 1001.8
20260831162010 76 98 1.0 3.0 0.00 0.00 0.00 58 1002.0
20260831160009 76 256 2.0 5.0 0.00 0.00 0.00 60 1002.1
20260831155010 76 125 0.0 3.0 0.00 0.00 0.00 59 1002.1
20260831154009 76 283 2.0 3.0 0.00 0.00 0.00 57 1002.1
20260831153010 76 65 3.0 5.0 0.00 0.00 0.00 56 1002.0
20260831152009 75 177 1.0 3.0 0.00 0.00 0.00 55 1002.0
20260831151013 74 116 1.0 2.0 0.00 0.00 0.00 58 1002.1
20260831150009 74 156 2.0 3.0 0.00 0.00 0.00 56 1002.0
20260831145009 74 33 1.0 3.0 0.00 0.00 0.00 58 1002.2
20260831143009 73 271 1.0 3.0 0.00 0.00 0.00 64 1002.4
20260831141009 71 139 1.0 3.0 0.00 0.00 0.00 66 1002.5
20260831140009 71 69 2.0 5.0 0.00 0.00 0.00 70 1002.5
20260831135009 72 175 1.0 2.0 0.00 0.00 0.00 65 1002.4
20260831134009 70 155 0.0 2.0 0.00 0.00 0.00 70 1002.5
20260831133009 70 98 3.0 3.0 0.00 0.00 0.00 75 1002.4
20260831132009 68 54 1.0 3.0 0.00 0.00 0.00 77 1002.4
20260831131009 67 133 0.0 1.0 0.00 0.00 0.00 81 1002.4
20260831130009 65 193 0.0 1.0 0.00 0.00 0.00 84 1002.4
20260831125009 63 132 0.0 2.0 0.00 0.00 0.00 90 1002.3
20260831124009 62 173 2.0 3.0 0.00 0.00 0.00 91 1002.3
20260831123009 62 151 1.0 2.0 0.00 0.00 0.00 93 1002.0
20260831122009 61 88 1.0 3.0 0.00 0.00 0.00 93 1001.9
20260831120008 58 153 1.0 3.0 0.00 0.00 0.00 95 1001.8
20260831115008 57 134 0.0 1.0 0.00 0.00 0.00 95 1001.7
20260831114009 56 147 0.0 0.0 0.00 0.00 0.00 95 1001.7
20260831113008 56 147 0.0 0.0 0.00 0.00 0.00 95 1001.7
20260831112008 55 147 0.0 0.0 0.00 0.00 0.00 95 1001.5
20260831110008 54 147 0.0 0.0 0.00 0.00 0.00 95 1001.4
20260831104009 54 147 0.0 0.0 0.00 0.00 0.00 95 1001.3
20260831103008 54 147 0.0 0.0 0.00 0.00 0.00 95 1001.3
20260831102008 55 147 0.0 0.0 0.00 0.00 0.00 95 1001.2
20260831101008 55 147 0.0 0.0 0.00 0.00 0.00 95 1001.2
20260831100008 55 147 0.0 0.0 0.00 0.00 0.00 95 1001.2
20260831095008 55 147 0.0 0.0 0.00 0.00 0.00 95 1001.2
20260831094008 55 147 0.0 0.0 0.00 0.00 0.00 94 1001.2
20260831093008 55 147 0.0 0.0 0.00 0.00 0.00 94 1001.1
20260831092008 56 147 0.0 0.0 0.00 0.00 0.00 94 1001.0
20260831091008 56 147 0.0 0.0 0.00 0.00 0.00 94 1001.0
20260831090007 56 147 0.0 0.0 0.00 0.00 0.00 94 1001.0
20260831085008 56 147 0.0 0.0 0.00 0.00 0.00 94 1000.9
20260831084008 56 147 0.0 1.0 0.00 0.00 0.00 94 1000.9